Weather History for KRKR - March, 2013

Change the Weather History Date:

Monday, March 4, 2013

  Actual Average (KFSM) Record (KFSM)
Temperature  
Mean Temperature 65 °F 49 °F  
Max Temperature 77 °F 61 °F 84 °F (1938)
Min Temperature 53 °F 38 °F 11 °F (2002)
Degree Days  
Heating Degree Days 0 16  
Month to date heating degree days 65  
Since 1 July heating degree days 2738  
Cooling Degree Days 0 0  
Month to date cooling degree days 0  
Year to date cooling degree days 1  
Growing Degree Days 15 (Base 50)    
Moisture  
Dew Point 47 °F    
Average Humidity 61    
Maximum Humidity 88    
Minimum Humidity 39    
Precipitation  
Precipitation 0.00 in 0.12 in 1.85 in (1989)
Month to date precipitation 0.44  
Year to date precipitation 6.01  
Sea Level Pressure  
Sea Level Pressure 29.68 in    
Wind  
Wind Speed 10 mph (South)    
Max Wind Speed 22 mph    
Max Gust Speed 30 mph    
Visibility 10 miles    
Events Rain    
T = Trace of Precipitation, MM = Missing Value Source: NWS Daily Summary

Daily Weather History Graph

Daily Weather History Graph

Search for Another Location

Airport or City:

Trip Planner

Search our weather history database for the weather conditions in past years. The results will help you decide how hot, cold, wet, or windy it might be!

Date:

Astronomy

Mar. 04, 2013 Rise Set
Actual Time 6:43 AM CST 6:17 PM CST
Civil Twilight 6:18 AM CST 6:42 PM CST
Nautical Twilight 5:49 AM CST 7:11 PM CST
Astronomical Twilight 5:19 AM CST 7:41 PM CST
Moon 12:44 AM CST (3/4) 11:09 AM CST (3/4)
Length of Visible Light 12h 24m
Length of Day
11h 33m
Waning Gibbous, 52% of the Moon is Illuminated
Mar 4
Waning Gibbous
Mar 4
Last Quarter
Mar 11
New
Mar 19
First Quarter
Mar 27
Full

Hourly Weather History & Observations

Time (CST) Temp. Dew Point Humidity Pressure Visibility Wind Dir Wind Speed Gust Speed Precip Events Conditions
12:15 AM 55.4 °F 35.6 °F 47% 29.80 in 10.0 mi Calm Calm - N/A   Clear
12:35 AM 55.4 °F 35.6 °F 47% 29.79 in 10.0 mi SSW 6.9 mph - N/A   Clear
12:55 AM 55.4 °F 37.4 °F 51% 29.79 in 10.0 mi SSW 6.9 mph - N/A   Clear
1:15 AM 59.0 °F 39.2 °F 48% 29.78 in 10.0 mi South 11.5 mph - N/A   Clear
1:55 AM 59.0 °F 41.0 °F 51% 29.76 in 10.0 mi SSW 20.7 mph 26.5 mph N/A   Clear
2:15 AM 57.2 °F 41.0 °F 55% 29.75 in 10.0 mi South 17.3 mph 24.2 mph N/A   Clear
2:35 AM 57.2 °F 39.2 °F 51% 29.74 in 10.0 mi South 16.1 mph 23.0 mph N/A   Clear
2:55 AM 57.2 °F 41.0 °F 55% 29.73 in 10.0 mi South 16.1 mph - N/A   Clear
3:35 AM 57.2 °F 41.0 °F 55% 29.70 in 10.0 mi South 17.3 mph 27.6 mph N/A   Clear
3:55 AM 55.4 °F 41.0 °F 58% 29.70 in 10.0 mi SSW 20.7 mph 26.5 mph N/A   Clear
4:15 AM 55.4 °F 41.0 °F 58% 29.69 in 10.0 mi SSW 20.7 mph 25.3 mph N/A   Clear
4:35 AM 55.4 °F 41.0 °F 58% 29.70 in 10.0 mi SSW 21.9 mph 29.9 mph N/A   Clear
4:55 AM 55.4 °F 41.0 °F 58% 29.70 in 10.0 mi South 15.0 mph 24.2 mph N/A   Clear
5:15 AM 55.4 °F 41.0 °F 58% 29.70 in 10.0 mi South 11.5 mph 19.6 mph N/A   Clear
5:35 AM 55.4 °F 41.0 °F 58% 29.71 in 10.0 mi South 6.9 mph 17.3 mph N/A   Clear
5:55 AM 55.4 °F 42.8 °F 63% 29.70 in 10.0 mi South 11.5 mph - N/A   Clear
6:15 AM 55.4 °F 42.8 °F 63% 29.70 in 10.0 mi South 13.8 mph - N/A   Clear
6:35 AM 55.4 °F 44.6 °F 67% 29.69 in 10.0 mi South 11.5 mph 19.6 mph N/A   Clear
6:55 AM 53.6 °F 42.8 °F 67% 29.68 in 10.0 mi South 13.8 mph 18.4 mph N/A   Clear
7:15 AM 55.4 °F 44.6 °F 67% 29.68 in 10.0 mi South 15.0 mph 18.4 mph N/A   Clear
7:35 AM 55.4 °F 44.6 °F 67% 29.69 in 10.0 mi South 6.9 mph 19.6 mph N/A   Clear
7:55 AM 55.4 °F 44.6 °F 67% 29.69 in 10.0 mi South 13.8 mph 17.3 mph N/A   Clear
8:15 AM 55.4 °F 44.6 °F 67% 29.69 in 10.0 mi South 12.7 mph 18.4 mph N/A   Clear
8:35 AM 57.2 °F 46.4 °F 67% 29.68 in 10.0 mi South 15.0 mph - N/A   Clear
8:55 AM 59.0 °F 46.4 °F 63% 29.68 in 10.0 mi South 16.1 mph 26.5 mph N/A   Clear
9:15 AM 59.0 °F 46.4 °F 63% 29.68 in 10.0 mi South 16.1 mph 20.7 mph N/A   Clear
9:35 AM 59.0 °F 48.2 °F 67% 29.68 in 10.0 mi South 12.7 mph 23.0 mph N/A   Clear
9:55 AM 59.0 °F 48.2 °F 67% 29.68 in 10.0 mi South 13.8 mph 20.7 mph N/A   Clear
10:15 AM 59.0 °F 48.2 °F 67% 29.68 in 10.0 mi South 13.8 mph 21.9 mph N/A   Clear
10:35 AM 59.0 °F 48.2 °F 67% 29.68 in 10.0 mi South 17.3 mph 23.0 mph N/A   Clear
10:55 AM 60.8 °F 50.0 °F 68% 29.67 in 10.0 mi South 15.0 mph 21.9 mph N/A   Clear
11:15 AM 62.6 °F 50.0 °F 63% 29.66 in 10.0 mi South 18.4 mph 23.0 mph N/A   Clear
11:35 AM 62.6 °F 50.0 °F 63% 29.66 in 10.0 mi South 16.1 mph 25.3 mph N/A   Clear
11:55 AM 64.4 °F 50.0 °F 59% 29.65 in 10.0 mi SSW 18.4 mph 24.2 mph N/A   Clear
12:15 PM 66.2 °F 50.0 °F 56% 29.64 in 10.0 mi South 13.8 mph 19.6 mph N/A   Clear
12:55 PM 68.0 °F 50.0 °F 52% 29.63 in 10.0 mi SSE 12.7 mph 21.9 mph N/A   Clear
1:15 PM 68.0 °F 51.8 °F 56% 29.62 in 10.0 mi SSE 11.5 mph 20.7 mph N/A   Clear
1:35 PM 68.0 °F 51.8 °F 56% 29.62 in 10.0 mi South 8.1 mph - N/A   Scattered Clouds
1:55 PM 69.8 °F 51.8 °F 53% 29.61 in 10.0 mi South 8.1 mph - N/A   Scattered Clouds
2:15 PM 71.6 °F 51.8 °F 50% 29.61 in 10.0 mi South 3.5 mph - N/A   Mostly Cloudy
2:35 PM 71.6 °F 51.8 °F 50% 29.61 in 10.0 mi South 9.2 mph - N/A   Mostly Cloudy
2:55 PM 73.4 °F 50.0 °F 44% 29.60 in 10.0 mi SSW 12.7 mph - N/A   Scattered Clouds
3:15 PM 77.0 °F 50.0 °F 39% 29.61 in 10.0 mi SSW 15.0 mph 19.6 mph N/A   Scattered Clouds
3:35 PM 77.0 °F 50.0 °F 39% 29.60 in 10.0 mi SSW 13.8 mph 21.9 mph N/A   Clear
3:55 PM 77.0 °F 50.0 °F 39% 29.60 in 10.0 mi SW 12.7 mph 16.1 mph N/A   Clear
4:15 PM 77.0 °F 50.0 °F 39% 29.60 in 10.0 mi SSW 12.7 mph 17.3 mph N/A   Clear
4:35 PM 77.0 °F 50.0 °F 39% 29.60 in 10.0 mi South 6.9 mph - N/A   Clear
4:55 PM 77.0 °F 50.0 °F 39% 29.60 in 10.0 mi SSE 8.1 mph - N/A   Clear
5:15 PM 77.0 °F 50.0 °F 39% 29.60 in 10.0 mi SSE 6.9 mph - N/A   Clear
5:35 PM 77.0 °F 51.8 °F 41% 29.60 in 10.0 mi SSE 3.5 mph - N/A   Clear
5:55 PM 71.6 °F 50.0 °F 46% 29.62 in 10.0 mi Calm Calm - N/A   Clear
6:15 PM 71.6 °F 50.0 °F 46% 29.62 in 10.0 mi Calm Calm - N/A   Clear
6:35 PM 64.4 °F 50.0 °F 59% 29.63 in 10.0 mi Calm Calm - N/A   Clear
6:55 PM 60.8 °F 50.0 °F 68% 29.64 in 10.0 mi Calm Calm - N/A   Clear
7:15 PM 60.8 °F 50.0 °F 68% 29.65 in 10.0 mi Calm Calm - N/A   Clear
7:35 PM 62.6 °F 50.0 °F 63% 29.65 in 10.0 mi Calm Calm - N/A   Clear
7:55 PM 60.8 °F 51.8 °F 72% 29.67 in 10.0 mi NNE 5.8 mph - N/A   Clear
8:35 PM 57.2 °F 51.8 °F 82% 29.69 in 10.0 mi North 4.6 mph - N/A   Clear
8:55 PM 55.4 °F 51.8 °F 88% 29.70 in 10.0 mi North 4.6 mph - N/A   Clear
9:15 PM 55.4 °F 51.8 °F 88% 29.70 in 10.0 mi North 4.6 mph - N/A   Clear
9:35 PM 55.4 °F 51.8 °F 88% 29.71 in 10.0 mi Calm Calm - N/A   Clear
9:55 PM 55.4 °F 51.8 °F 88% 29.72 in 10.0 mi Calm Calm - N/A   Scattered Clouds
10:15 PM 53.6 °F 50.0 °F 88% 29.74 in 10.0 mi Calm Calm - N/A   Scattered Clouds
10:35 PM 55.4 °F 51.8 °F 88% 29.73 in 10.0 mi Calm Calm - N/A   Scattered Clouds
10:55 PM 55.4 °F 51.8 °F 88% 29.74 in 10.0 mi Calm Calm - N/A   Scattered Clouds
11:15 PM 55.4 °F 51.8 °F 88% 29.77 in 7.0 mi WNW 6.9 mph 17.3 mph N/A Rain Light Rain
11:35 PM 55.4 °F 51.8 °F 88% 29.79 in 10.0 mi Calm Calm - N/A   Mostly Cloudy
11:55 PM 55.4 °F 50.0 °F 82% 29.85 in 10.0 mi West 10.4 mph - N/A   Overcast